This is the latest recevied weather packets stored in our database for station/object DG7YEO-13. If no packets are shown the sender has not sent any weather packets the latest 10 day(s).
| Time | Temp. | Humidity | Pressure | Rain* | Wind** | Luminosity | Snow |
|---|---|---|---|---|---|---|---|
| 1787596325 | 18.89° C | 61% | 1017.7 hPa | 0 mm | - | - | - |
| 1787595425 | 19.44° C | 60% | 1017.7 hPa | 0 mm | - | - | - |
| 1787594525 | 20° C | 58% | 1017.8 hPa | 0 mm | - | - | - |
| 1787593625 | 20° C | 57% | 1018 hPa | 0 mm | - | - | - |
| 1787592724 | 20.56° C | 56% | 1017.9 hPa | 0 mm | - | - | - |
| 1787591825 | 20.56° C | 55% | 1018.1 hPa | 0 mm | - | - | - |
| 1787590925 | 20.56° C | 55% | 1018.1 hPa | 0 mm | - | - | - |
| 1787590025 | 20.56° C | 54% | 1018.2 hPa | 0 mm | - | - | - |
| 1787589125 | 21.11° C | 54% | 1018.5 hPa | 0 mm | - | - | - |
| 1787588225 | 21.67° C | 52% | 1018.7 hPa | 0 mm | - | - | - |
| 1787587325 | 21.67° C | 51% | 1018.9 hPa | 0 mm | - | - | - |
| 1787586425 | 22.22° C | 51% | 1019 hPa | 0 mm | - | - | - |
| 1787585525 | 22.22° C | 50% | 1019.4 hPa | 0 mm | - | - | - |
| 1787584626 | 22.22° C | 51% | 1019.5 hPa | 0 mm | - | - | - |
| 1787583725 | 22.22° C | 51% | 1019.7 hPa | 0 mm | - | - | - |
| 1787582825 | 21.67° C | 52% | 1019.9 hPa | 0 mm | - | - | - |
| 1787581925 | 21.67° C | 53% | 1020.1 hPa | 0 mm | - | - | - |
| 1787581025 | 22.22° C | 53% | 1020.2 hPa | 0 mm | - | - | - |
| 1787580126 | 21.67° C | 52% | 1020.5 hPa | 0 mm | - | - | - |
| 1787579225 | 21.11° C | 55% | 1020.6 hPa | 0 mm | - | - | - |
| 1787578325 | 21.11° C | 54% | 1020.8 hPa | 0 mm | - | - | - |
| 1787577425 | 21.11° C | 54% | 1021 hPa | 0 mm | - | - | - |
| 1787576525 | 21.11° C | 55% | 1021 hPa | 0 mm | - | - | - |
| 1787575625 | 20.56° C | 55% | 1021.2 hPa | 0 mm | - | - | - |
| 1787574725 | 21.11° C | 54% | 1021.4 hPa | 0 mm | - | - | - |
* Rain latest hour (hover to see other rain measurements)
** Current wind speed in m/s (hover to see current wind gust speed)